Ashland, VA

9:18 AM EST on February 07, 2016 (GMT -0500)
Hanover County Municipal

Weather History for KOFP - March, 2013

Change the Weather History Date:

Sunday, March 10, 2013

  Actual Average Record
Temperature  
Mean Temperature 44 °F -  
Max Temperature 63 °F 57 °F 80 °F (1964)
Min Temperature 26 °F 32 °F 14 °F (1984)
Degree Days  
Heating Degree Days 20    
Moisture  
Dew Point 25 °F    
Average Humidity 53    
Maximum Humidity 100    
Minimum Humidity 17    
Precipitation  
Precipitation 0.00 in - - ()
Sea Level Pressure  
Sea Level Pressure 30.30 in    
Wind  
Wind Speed 2 mph (SSE)    
Max Wind Speed 9 mph    
Max Gust Speed -    
Visibility 10 miles    
Events      
Averages and records for this station are not official NWS values.
T = Trace of Precipitation, MM = Missing Value Source: NWS Daily Summary

Daily Weather History Graph

Daily Weather History Graph

Search for Another Location

Airport or City:

Trip Planner

Search our weather history database for the weather conditions in past years. The results will help you decide how hot, cold, wet, or windy it might be!

Date:

Astronomy

Mar. 10, 2013 Rise Set
Actual Time 7:27 AM EDT 7:12 PM EDT
Civil Twilight 7:01 AM EDT 7:38 PM EDT
Nautical Twilight 6:31 AM EDT 8:09 PM EDT
Astronomical Twilight 6:00 AM EDT 8:39 PM EDT
Moon 6:26 AM EDT (3/10) 6:18 PM EDT (3/10)
Length of Visible Light 12h 36m
Length of Day
11h 44m
Waning Crescent, 2% of the Moon is Illuminated
Mar 10
Waning Crescent
Mar 11
New
Mar 19
First Quarter
Mar 27
Full
Apr 3
Last Quarter

Hourly Weather History & Observations

Time (EDT) Temp. Windchill Dew Point Humidity Pressure Visibility Wind Dir Wind Speed Gust Speed Precip Events Conditions
12:54 AM 30.0 °F - 28.0 °F 92% 30.33 in 10.0 mi Calm Calm - N/A   Clear
1:54 AM 30.0 °F - 27.0 °F 88% 30.31 in 10.0 mi Calm Calm - N/A   Clear
3:54 AM 30.0 °F - 27.0 °F 88% 30.30 in 10.0 mi Calm Calm - N/A   Clear
4:54 AM 28.0 °F - 27.0 °F 96% 30.30 in 10.0 mi Calm Calm - N/A   Clear
5:54 AM 28.0 °F - 27.0 °F 96% 30.31 in 10.0 mi Calm Calm - N/A   Clear
6:54 AM 26.1 °F - 26.1 °F 100% 30.31 in 10.0 mi Calm Calm - N/A   Clear
8:54 AM 36.0 °F - 30.9 °F 82% 30.34 in 10.0 mi Calm Calm - N/A   Clear
9:54 AM 45.0 °F 43.5 °F 30.9 °F 58% 30.35 in 10.0 mi South 3.5 mph - N/A   Clear
10:54 AM 52.0 °F - 25.0 °F 35% 30.35 in 10.0 mi South 5.8 mph - N/A   Clear
11:54 AM 54.0 °F - 24.1 °F 31% 30.35 in 10.0 mi SSE 5.8 mph - N/A   Clear
12:54 PM 57.9 °F - 21.9 °F 25% 30.33 in 10.0 mi SSE 6.9 mph - N/A   Clear
1:54 PM 59.0 °F - 19.0 °F 21% 30.31 in 10.0 mi Calm Calm - N/A   Clear
2:54 PM 62.1 °F - 21.0 °F 21% 30.27 in 10.0 mi Variable 3.5 mph - N/A   Clear
3:54 PM 63.0 °F - 19.9 °F 19% 30.25 in 10.0 mi South 9.2 mph - N/A   Clear
4:54 PM 63.0 °F - 17.1 °F 17% 30.26 in 10.0 mi South 9.2 mph - N/A   Clear
5:54 PM 62.1 °F - 18.0 °F 18% 30.24 in 10.0 mi SSE 9.2 mph - N/A   Clear
6:54 PM 60.1 °F - 16.0 °F 18% 30.24 in 10.0 mi SE 4.6 mph - N/A   Clear
7:54 PM 55.0 °F - 17.1 °F 23% 30.26 in 10.0 mi SE 3.5 mph - N/A   Clear
8:54 PM 48.0 °F - 24.1 °F 39% 30.27 in 10.0 mi ESE 3.5 mph - N/A   Clear
10:54 PM 46.9 °F - 37.9 °F 71% 30.29 in 10.0 mi SE 4.6 mph - N/A   Clear
11:54 PM 45.0 °F - 39.0 °F 80% 30.28 in 10.0 mi Calm Calm - N/A   Clear